W1HS Weather Reports


Display with metric or nautical units.
time (UTC)temp
F
wind
direction
speed
MPH
gust
MPH
rain 1hr
in
rain 24hr
in
rain mn
in
humidity
%
barometer
mb
20260904215418 73 0.0 2.0 0.00 0.00 0.00 63 988.9
20260904214419 73 293 2.0 4.0 0.00 0.00 0.00 61 989.0
20260904213419 74 315 2.0 10.0 0.00 0.00 0.00 60 989.0
20260904212418 74 270 2.0 3.0 0.00 0.00 0.00 60 988.9
20260904211418 75 293 5.0 10.0 0.00 0.00 0.00 58 989.1
20260904210419 76 293 3.0 10.0 0.00 0.00 0.00 56 989.0
20260904205419 76 315 7.0 13.0 0.00 0.00 0.00 56 989.0
20260904204419 76 338 1.0 3.0 0.00 0.00 0.00 60 989.0
20260904203419 76 293 5.0 10.0 0.00 0.00 0.00 57 989.1
20260904202418 76 248 4.0 8.0 0.00 0.00 0.00 56 989.1
20260904201418 77 293 3.0 6.0 0.00 0.00 0.00 56 989.0
20260904200420 76 293 3.0 8.0 0.00 0.00 0.00 60 989.0
20260904195419 76 293 3.0 7.0 0.00 0.00 0.00 59 989.2
20260904194419 77 270 3.0 6.0 0.00 0.00 0.00 58 989.1
20260904193419 77 270 5.0 8.0 0.00 0.00 0.00 54 989.1
20260904192419 78 293 6.0 11.0 0.00 0.00 0.00 54 989.1
20260904191418 77 293 3.0 5.0 0.00 0.00 0.00 55 989.2
20260904190418 77 293 2.0 7.0 0.00 0.00 0.00 57 989.2
20260904185419 77 45 3.0 4.0 0.00 0.00 0.00 54 989.2
20260904184418 77 293 3.0 8.0 0.00 0.00 0.00 57 989.2
20260904183418 77 270 1.0 4.0 0.00 0.00 0.00 57 989.3
20260904182418 78 338 2.0 6.0 0.00 0.00 0.00 57 989.5
20260904181420 77 293 1.0 3.0 0.00 0.00 0.00 56 989.5
20260904180418 78 90 1.0 3.0 0.00 0.00 0.00 58 989.6
20260904175420 77 293 6.0 10.0 0.00 0.00 0.00 55 989.5
20260904174418 76 293 4.0 8.0 0.00 0.00 0.00 58 989.5
20260904173418 77 270 3.0 6.0 0.00 0.00 0.00 57 989.3
20260904172418 75 248 5.0 12.0 0.00 0.00 0.00 62 989.3
20260904171418 76 315 2.0 5.0 0.00 0.00 0.00 64 989.6
20260904170418 75 0.0 0.0 0.00 0.00 0.00 68 989.7
20260904165418 76 315 1.0 3.0 0.00 0.00 0.00 66 989.6
20260904164419 76 270 1.0 2.0 0.00 0.00 0.00 65 989.7
20260904163418 74 270 1.0 2.0 0.00 0.00 0.00 69 989.7
20260904162418 75 0.0 0.0 0.00 0.00 0.00 70 990.0
20260904161420 75 315 2.0 4.0 0.00 0.00 0.00 70 989.9
20260904160418 74 315 1.0 4.0 0.00 0.00 0.00 75 990.0
20260904155422 74 293 1.0 3.0 0.00 0.00 0.00 72 990.0
20260904154418 75 293 1.0 4.0 0.00 0.00 0.00 71 990.0
20260904153418 74 0.0 2.0 0.00 0.00 0.00 69 990.1
20260904152418 75 293 3.0 7.0 0.00 0.00 0.00 70 990.4
20260904151418 74 293 3.0 7.0 0.00 0.00 0.00 72 990.4
20260904150418 73 270 3.0 13.0 0.00 0.00 0.00 74 990.4
20260904145418 72 0.0 2.0 0.00 0.00 0.00 75 990.3
20260904144417 72 248 1.0 2.0 0.00 0.00 0.00 75 990.4
20260904143418 71 270 3.0 6.0 0.00 0.00 0.00 78 990.5
20260904142451 71 0.0 2.0 0.00 0.00 0.00 80 990.4
20260904142118 71 270 4.0 6.0 0.00 0.00 0.00 81 990.4
20260904141118 70 248 3.0 5.0 0.00 0.00 0.00 84 990.4
20260904140118 70 270 1.0 6.0 0.00 0.00 0.00 85 990.4
20260904135117 70 315 2.0 4.0 0.00 0.00 0.00 84 990.5
20260904134118 69 0.0 1.0 0.00 0.00 0.00 83 990.5
20260904133118 68 338 1.0 3.0 0.00 0.00 0.00 84 990.4
20260904132120 67 0.0 0.0 0.00 0.00 0.00 87 990.4
20260904131120 66 0.0 0.0 0.00 0.00 0.00 93 990.5
20260904130120 65 0.0 0.0 0.00 0.00 0.00 94 990.4
20260904125120 64 0.0 0.0 0.00 0.00 0.00 95 990.5
20260904124120 63 0.0 0.0 0.00 0.00 0.00 95 990.5
20260904123120 63 0.0 0.0 0.00 0.00 0.00 95 990.4
20260904122120 62 0.0 0.0 0.00 0.00 0.00 95 990.5
20260904121118 62 0.0 0.0 0.00 0.00 0.00 95 990.3
20260904120122 61 0.0 0.0 0.00 0.00 0.00 95 990.2
20260904115120 61 0.0 0.0 0.00 0.00 0.00 95 990.3
20260904114119 61 0.0 0.0 0.00 0.00 0.00 94 990.2
20260904113121 62 0.0 0.0 0.00 0.00 0.00 94 990.1
20260904112120 62 0.0 0.0 0.00 0.00 0.00 95 990.1
20260904111121 62 0.0 0.0 0.00 0.00 0.00 95 989.9
20260904110122 62 0.0 0.0 0.00 0.00 0.00 95 989.8
20260904105119 62 0.0 0.0 0.00 0.00 0.00 95 989.9
20260904104122 62 0.0 0.0 0.00 0.00 0.00 95 989.8
20260904103120 61 0.0 0.0 0.00 0.00 0.00 94 989.9
20260904102120 61 0.0 0.0 0.00 0.00 0.00 94 989.8
20260904101122 62 0.0 0.0 0.00 0.00 0.00 94 989.7
20260904100119 62 0.0 0.0 0.00 0.00 0.00 94 989.7
20260904095120 62 0.0 0.0 0.00 0.00 0.00 94 989.6
20260904094119 62 0.0 0.0 0.00 0.00 0.00 95 989.6
20260904093120 62 0.0 0.0 0.00 0.00 0.00 95 989.7
20260904092119 62 0.0 0.0 0.00 0.00 0.00 95 989.7
20260904091119 62 0.0 0.0 0.00 0.00 0.00 95 989.7
20260904090119 62 0.0 0.0 0.00 0.00 0.00 95 989.6
20260904085119 62 0.0 0.0 0.00 0.00 0.00 94 989.5
20260904084120 62 0.0 0.0 0.00 0.00 0.00 94 989.7
20260904083119 62 0.0 0.0 0.00 0.00 0.00 95 989.7
20260904082120 62 0.0 0.0 0.00 0.00 0.00 95 989.6
20260904081122 62 0.0 0.0 0.00 0.00 0.00 94 989.5
20260904080120 62 0.0 0.0 0.00 0.00 0.00 93 989.5
20260904075119 62 0.0 0.0 0.00 0.00 0.00 92 989.6
20260904074120 63 0.0 0.0 0.00 0.00 0.00 91 989.7
20260904073119 63 0.0 0.0 0.00 0.00 0.00 91 989.8
20260904072119 64 270 1.0 2.0 0.00 0.00 0.00 90 989.8
20260904071119 64 0.0 0.0 0.00 0.00 0.00 91 989.7
20260904070121 64 0.0 0.0 0.00 0.00 0.00 91 989.7
20260904065120 64 0.0 0.0 0.00 0.00 0.00 91 989.7
20260904064119 64 0.0 0.0 0.00 0.00 0.00 92 989.8
20260904063119 64 0.0 0.0 0.00 0.01 0.00 92 989.8
20260904062121 64 0.0 0.0 0.00 0.01 0.00 92 990.0
20260904061119 65 0.0 0.0 0.00 0.01 0.00 92 990.0
20260904060119 65 0.0 0.0 0.00 0.02 0.00 92 990.2
20260904055119 65 0.0 0.0 0.00 0.02 0.00 92 990.4
20260904054119 65 0.0 0.0 0.00 0.05 0.00 92 990.4
20260904053119 66 0.0 0.0 0.00 0.05 0.00 91 990.5
20260904052119 66 0.0 0.0 0.00 0.05 0.00 90 990.6
20260904051120 66 0.0 0.0 0.00 0.05 0.00 90 990.8
20260904050119 67 0.0 0.0 0.00 0.05 0.00 90 990.9
20260904045121 67 0.0 0.0 0.00 0.05 0.00 90 990.9
20260904044119 67 0.0 0.0 0.00 0.05 0.00 90 990.8
20260904043119 67 0.0 0.0 0.00 0.05 0.00 90 990.8
20260904042119 67 0.0 0.0 0.00 0.05 0.00 90 990.8
20260904041119 67 0.0 0.0 0.00 0.05 0.00 91 990.8
20260904040119 67 0.0 0.0 0.00 0.05 0.00 91 990.9
20260904035119 67 0.0 0.0 0.00 0.05 0.05 91 991.0
20260904034119 67 0.0 0.0 0.00 0.05 0.05 91 991.1
20260904033119 67 0.0 0.0 0.00 0.05 0.05 91 991.0
20260904032119 68 0.0 0.0 0.00 0.05 0.05 90 991.2
20260904031119 68 0.0 0.0 0.00 0.05 0.05 89 991.3
20260904030119 68 0.0 0.0 0.00 0.05 0.05 90 991.3
20260904025119 68 0.0 0.0 0.00 0.05 0.05 90 991.3
20260904024121 68 0.0 0.0 0.00 0.05 0.05 89 991.4
20260904023121 69 0.0 0.0 0.00 0.05 0.05 88 991.5
20260904022119 69 0.0 0.0 0.00 0.05 0.05 88 991.4
20260904021119 69 0.0 0.0 0.00 0.05 0.05 88 991.2
20260904020121 69 0.0 0.0 0.00 0.05 0.05 88 991.4
20260904015201 69 0.0 0.0 0.00 0.05 0.05 89 991.3
20260904014619 69 0.0 2.0 0.00 0.05 0.05 90 991.4
20260904013619 69 0.0 0.0 0.00 0.05 0.05 91 991.4
20260904012619 69 0.0 0.0 0.00 0.05 0.05 91 991.5
20260904011621 69 0.0 0.0 0.00 0.05 0.05 90 991.3
20260904010621 69 0.0 0.0 0.00 0.05 0.05 89 991.3
20260904005619 70 0.0 0.0 0.00 0.05 0.05 89 991.4
20260904004619 71 0.0 2.0 0.00 0.05 0.05 88 991.4
20260904003620 71 0.0 1.0 0.00 0.05 0.05 89 991.6
20260904002620 71 270 2.0 4.0 0.00 0.05 0.05 89 991.3
20260904001619 72 0.0 2.0 0.00 0.05 0.05 88 991.1
20260904000618 72 248 1.0 4.0 0.00 0.05 0.05 87 991.1
20260903235620 72 0.0 2.0 0.00 0.05 0.05 86 991.0
20260903234621 72 225 3.0 4.0 0.00 0.05 0.05 86 990.8
20260903233619 73 225 1.0 2.0 0.00 0.05 0.05 85 990.8
20260903232645 73 248 5.0 9.0 0.00 0.05 0.05 85 990.9
20260903231619 73 225 2.0 3.0 0.00 0.05 0.05 85 991.0
20260903230619 74 225 2.0 4.0 0.00 0.05 0.05 84 990.9
20260903225619 74 225 2.0 4.0 0.00 0.05 0.05 84 991.0
20260903224619 75 203 2.0 5.0 0.00 0.05 0.05 83 990.9
20260903223618 75 225 2.0 3.0 0.00 0.05 0.05 82 991.1
20260903222618 76 225 2.0 5.0 0.00 0.05 0.05 82 991.0
20260903221725 76 0.0 2.0 0.00 0.05 0.05 81 990.9
20260903220818 76 248 6.0 8.0 0.00 0.05 0.05 80 991.2